Radiation Dose at Monitoring Post of Fukushima Daini Nuclear Power Station
Date,Time,MP-1(microSv/h),MP-2(microSv/h),MP-3(microSv/h),MP-4(microSv/h),MP-5(microSv/h),MP-6(microSv/h),MP-7(microSv/h),Wind Direction,Wind Velocity(m/s),Rain
2017/12/18,00:00,0.341,0.208,0.348,0.325,0.314,0.173,0.103,southwest,5.4,No
2017/12/18,00:10,0.341,0.208,0.346,0.324,0.314,0.173,0.104,southwest,2.9,No
2017/12/18,00:20,0.342,0.208,0.349,0.324,0.312,0.173,0.103,southwest,3.4,No
2017/12/18,00:30,0.342,0.209,0.347,0.323,0.315,0.174,0.104,southwest,3.3,No
2017/12/18,00:40,0.341,0.207,0.346,0.323,0.313,0.173,0.103,west-southwest,3.4,No
2017/12/18,00:50,0.341,0.208,0.347,0.322,0.313,0.174,0.104,southwest,4.9,No
2017/12/18,01:00,0.340,0.209,0.348,0.324,0.314,0.174,0.103,southwest,4.0,No
2017/12/18,01:10,0.342,0.208,0.348,0.323,0.314,0.173,0.104,southwest,5.0,No
2017/12/18,01:20,0.340,0.208,0.348,0.323,0.314,0.173,0.104,southwest,5.3,No
2017/12/18,01:30,0.341,0.207,0.348,0.323,0.313,0.173,0.103,southwest,3.9,No
2017/12/18,01:40,0.341,0.208,0.348,0.324,0.313,0.172,0.103,southwest,3.4,No
2017/12/18,01:50,0.342,0.208,0.346,0.323,0.314,0.174,0.103,southwest,3.2,No
2017/12/18,02:00,0.340,0.208,0.349,0.323,0.314,0.172,0.103,southwest,2.2,No
2017/12/18,02:10,0.340,0.207,0.348,0.323,0.313,0.174,0.104,south-southwest,2.1,No
2017/12/18,02:20,0.340,0.206,0.348,0.323,0.313,0.172,0.103,south-southwest,1.7,No
2017/12/18,02:30,0.341,0.208,0.347,0.323,0.313,0.173,0.105,south-southwest,0.6,No
2017/12/18,02:40,0.340,0.207,0.347,0.324,0.313,0.174,0.104,-,CALM,No
2017/12/18,02:50,0.340,0.207,0.348,0.324,0.313,0.174,0.103,west,1.1,No
2017/12/18,03:00,0.342,0.208,0.347,0.324,0.315,0.172,0.103,west-southwest,1.7,No
2017/12/18,03:10,0.341,0.208,0.347,0.323,0.314,0.173,0.103,west-southwest,2.2,No
2017/12/18,03:20,0.341,0.206,0.348,0.324,0.313,0.173,0.103,west-southwest,2.6,No
2017/12/18,03:30,0.341,0.208,0.348,0.323,0.313,0.173,0.103,southwest,3.1,No
2017/12/18,03:40,0.341,0.207,0.347,0.324,0.313,0.173,0.103,west-southwest,2.1,No
2017/12/18,03:50,0.340,0.208,0.347,0.324,0.312,0.174,0.103,west,1.2,No
2017/12/18,04:00,0.341,0.207,0.347,0.323,0.314,0.174,0.103,west,1.5,No
2017/12/18,04:10,0.341,0.207,0.348,0.323,0.313,0.173,0.103,west,1.3,No
2017/12/18,04:20,0.341,0.209,0.347,0.324,0.312,0.174,0.103,west-southwest,1.6,No
2017/12/18,04:30,0.341,0.207,0.348,0.324,0.312,0.173,0.104,southwest,2.2,No
2017/12/18,04:40,0.340,0.208,0.347,0.324,0.312,0.173,0.103,west-southwest,2.6,No
2017/12/18,04:50,0.340,0.207,0.348,0.321,0.313,0.172,0.103,southwest,3.1,No
2017/12/18,05:00,0.339,0.207,0.347,0.322,0.314,0.172,0.103,southwest,3.2,No
2017/12/18,05:10,0.339,0.208,0.348,0.323,0.313,0.175,0.103,west-southwest,3.3,No
2017/12/18,05:20,0.341,0.207,0.346,0.323,0.312,0.173,0.104,southwest,3.7,No
2017/12/18,05:30,0.341,0.207,0.347,0.323,0.312,0.173,0.104,west-southwest,4.4,No
2017/12/18,05:40,0.341,0.208,0.347,0.323,0.312,0.173,0.103,west-southwest,4.0,No
2017/12/18,05:50,0.341,0.207,0.347,0.322,0.312,0.173,0.103,west-southwest,4.0,No
2017/12/18,06:00,0.341,0.207,0.348,0.323,0.313,0.173,0.104,west,2.8,No
2017/12/18,06:10,0.340,0.207,0.345,0.322,0.314,0.174,0.104,west-southwest,3.9,No
2017/12/18,06:20,0.339,0.207,0.347,0.323,0.313,0.173,0.103,west,4.6,No
2017/12/18,06:30,0.340,0.207,0.346,0.324,0.313,0.173,0.103,west,5.6,No
2017/12/18,06:40,0.339,0.206,0.347,0.323,0.314,0.173,0.103,west-southwest,4.8,No
2017/12/18,06:50,0.341,0.208,0.347,0.323,0.314,0.174,0.104,west-southwest,4.4,No
2017/12/18,07:00,0.341,0.207,0.346,0.323,0.314,0.172,0.103,west-southwest,4.5,No
2017/12/18,07:10,0.339,0.208,0.347,0.322,0.314,0.173,0.103,west,5.0,No
2017/12/18,07:20,0.340,0.207,0.347,0.323,0.312,0.172,0.103,west,5.7,No
2017/12/18,07:30,0.340,0.207,0.346,0.324,0.313,0.173,0.104,west,5.7,No
2017/12/18,07:40,0.340,0.207,0.346,0.323,0.311,0.173,0.104,west,5.9,No
2017/12/18,07:50,0.340,0.207,0.346,0.322,0.312,0.173,0.103,west,6.2,No
2017/12/18,08:00,0.340,0.206,0.346,0.320,0.313,0.173,0.103,west,5.6,No
2017/12/18,08:10,0.339,0.206,0.348,0.322,0.313,0.171,0.103,west,5.5,No
2017/12/18,08:20,0.340,0.208,0.347,0.322,0.312,0.173,0.103,west,4.2,No
2017/12/18,08:30,0.337,0.206,0.347,0.322,0.313,0.172,0.102,west,4.0,No
2017/12/18,08:40,0.338,0.207,0.346,0.319,0.312,0.172,0.103,west,4.3,No
2017/12/18,08:50,0.340,0.207,0.346,0.323,0.312,0.173,0.103,west,2.5,No
2017/12/18,09:00,0.339,0.208,0.347,0.321,0.313,0.173,0.102,west-southwest,1.6,No
2017/12/18,09:10,0.339,0.208,0.346,0.322,0.312,0.172,0.103,west,1.5,No
2017/12/18,09:20,0.340,0.207,0.346,0.321,0.313,0.173,0.103,west-southwest,2.9,No
2017/12/18,09:30,0.338,0.206,0.346,0.322,0.315,0.173,0.103,west,2.9,No
2017/12/18,09:40,0.339,0.208,0.347,0.322,0.311,0.172,0.103,west-southwest,5.1,No
2017/12/18,09:50,0.341,0.207,0.347,0.322,0.313,0.173,0.103,west-southwest,6.2,No
2017/12/18,10:00,0.338,0.207,0.347,0.321,0.315,0.173,0.103,west-southwest,5.8,No
2017/12/18,10:10,0.338,0.207,0.346,0.324,0.314,0.174,0.103,southwest,4.8,No
2017/12/18,10:20,0.338,0.206,0.346,0.322,0.313,0.173,0.103,southwest,3.8,No
2017/12/18,10:30,0.337,0.205,0.346,0.323,0.314,0.173,0.103,west-southwest,3.9,No
2017/12/18,10:40,0.338,0.207,0.346,0.323,0.313,0.174,0.104,southwest,3.0,No
2017/12/18,10:50,0.339,0.206,0.347,0.323,0.314,0.173,0.103,west-southwest,2.7,No
2017/12/18,11:00,0.336,0.205,0.346,0.324,0.312,0.173,0.103,west,2.8,No
2017/12/18,11:10,0.339,0.207,0.345,0.321,0.313,0.173,0.103,west-northwest,4.8,No
2017/12/18,11:20,0.340,0.206,0.347,0.321,0.315,0.173,0.104,west-northwest,3.0,No
2017/12/18,11:30,0.339,0.207,0.346,0.322,0.312,0.173,0.103,west-northwest,3.9,No
2017/12/18,11:40,0.338,0.207,0.344,0.322,0.315,0.174,0.103,northwest,3.2,No
2017/12/18,11:50,0.338,0.207,0.346,0.322,0.312,0.173,0.103,west,3.0,No
2017/12/18,12:00,0.339,0.208,0.345,0.322,0.316,0.174,0.103,southwest,3.0,No
2017/12/18,12:10,0.339,0.207,0.346,0.322,0.312,0.173,0.102,west,1.8,No
2017/12/18,12:20,0.336,0.206,0.347,0.321,0.314,0.173,0.103,southwest,2.2,No
2017/12/18,12:30,0.340,0.206,0.345,0.322,0.313,0.174,0.103,southwest,3.8,No
2017/12/18,12:40,0.338,0.206,0.346,0.324,0.314,0.173,0.103,southwest,2.3,No
2017/12/18,12:50,0.338,0.207,0.346,0.322,0.314,0.173,0.103,south,5.0,No
2017/12/18,13:00,0.339,0.207,0.346,0.324,0.315,0.174,0.103,south,3.3,No
2017/12/18,13:10,0.338,0.207,0.348,0.324,0.315,0.174,0.104,south,3.7,No
2017/12/18,13:20,0.340,0.210,0.348,0.322,0.316,0.173,0.104,south-southwest,3.7,No
2017/12/18,13:30,0.339,0.207,0.346,0.323,0.316,0.172,0.103,south,3.6,No
2017/12/18,13:40,0.338,0.207,0.347,0.323,0.316,0.174,0.103,south,3.9,No
2017/12/18,13:50,0.341,0.207,0.346,0.321,0.315,0.174,0.103,south,5.5,No
2017/12/18,14:00,0.339,0.207,0.344,0.323,0.314,0.173,0.104,south,6.4,No
2017/12/18,14:10,0.340,0.208,0.346,0.325,0.316,0.173,0.103,south,6.7,No
2017/12/18,14:20,0.342,0.205,0.347,0.322,0.314,0.174,0.104,south,5.6,No
2017/12/18,14:30,0.340,0.207,0.346,0.325,0.314,0.173,0.104,south,5.1,No
2017/12/18,14:40,0.338,0.208,0.348,0.324,0.313,0.173,0.104,south,7.9,No
2017/12/18,14:50,0.340,0.207,0.348,0.324,0.312,0.174,0.104,south,7.1,No
2017/12/18,15:00,0.340,0.208,0.347,0.323,0.316,0.174,0.103,south,5.0,No
2017/12/18,15:10,0.340,0.208,0.347,0.323,0.314,0.174,0.104,south,3.6,No
2017/12/18,15:20,0.341,0.208,0.347,0.322,0.314,0.174,0.104,south,5.0,No
2017/12/18,15:30,0.340,0.207,0.347,0.324,0.314,0.173,0.103,south,2.8,No
2017/12/18,15:40,0.340,0.208,0.347,0.324,0.314,0.174,0.103,south-southwest,0.6,No
2017/12/18,15:50,0.340,0.208,0.347,0.324,0.315,0.174,0.104,south-southwest,1.2,No
2017/12/18,16:00,0.340,0.208,0.348,0.323,0.315,0.174,0.103,south,6.3,No
2017/12/18,16:10,0.340,0.207,0.348,0.323,0.315,0.174,0.104,south,6.1,No
2017/12/18,16:20,0.340,0.208,0.347,0.326,0.316,0.174,0.104,south-southwest,3.8,No
2017/12/18,16:30,0.340,0.208,0.348,0.324,0.316,0.173,0.104,south-southwest,5.7,No
2017/12/18,16:40,0.341,0.207,0.347,0.323,0.315,0.174,0.104,south-southwest,7.8,No
2017/12/18,16:50,0.339,0.207,0.346,0.324,0.315,0.174,0.104,south,8.2,No
2017/12/18,17:00,0.339,0.208,0.348,0.325,0.316,0.174,0.104,south-southwest,8.8,No
2017/12/18,17:10,0.340,0.209,0.348,0.325,0.313,0.175,0.105,south-southwest,8.5,No
2017/12/18,17:20,0.342,0.208,0.347,0.325,0.314,0.174,0.104,south-southwest,9.0,No
2017/12/18,17:30,0.340,0.207,0.346,0.326,0.315,0.173,0.103,south-southwest,8.4,No
2017/12/18,17:40,0.341,0.208,0.347,0.325,0.314,0.174,0.103,south-southwest,9.6,No
2017/12/18,17:50,0.341,0.208,0.349,0.325,0.314,0.174,0.103,south-southwest,9.0,No
2017/12/18,18:00,0.340,0.208,0.348,0.324,0.315,0.174,0.104,south-southwest,9.2,No
2017/12/18,18:10,0.341,0.207,0.347,0.325,0.314,0.174,0.104,south-southwest,8.4,No
2017/12/18,18:20,0.340,0.208,0.347,0.326,0.313,0.173,0.104,south-southwest,9.8,No
2017/12/18,18:30,0.341,0.208,0.348,0.324,0.315,0.174,0.104,south-southwest,8.8,No
2017/12/18,18:40,0.342,0.206,0.347,0.326,0.316,0.174,0.104,south-southwest,8.3,No
2017/12/18,18:50,0.341,0.207,0.347,0.325,0.314,0.173,0.105,south-southwest,8.8,No
2017/12/18,19:00,0.341,0.208,0.347,0.325,0.315,0.173,0.104,south-southwest,9.3,No
2017/12/18,19:10,0.340,0.209,0.347,0.326,0.313,0.174,0.103,south-southwest,11.8,No
2017/12/18,19:20,0.340,0.208,0.348,0.325,0.315,0.174,0.104,south-southwest,10.4,No
2017/12/18,19:30,0.341,0.208,0.347,0.325,0.313,0.174,0.103,southwest,10.1,No
2017/12/18,19:40,0.341,0.207,0.347,0.325,0.315,0.174,0.104,southwest,9.0,No
2017/12/18,19:50,0.340,0.207,0.347,0.325,0.315,0.175,0.104,southwest,8.7,No
2017/12/18,20:00,0.340,0.208,0.348,0.325,0.315,0.174,0.104,southwest,8.8,No
2017/12/18,20:10,0.340,0.208,0.348,0.325,0.315,0.173,0.104,southwest,8.5,No
2017/12/18,20:20,0.340,0.208,0.347,0.324,0.314,0.175,0.104,southwest,8.7,No
2017/12/18,20:30,0.340,0.207,0.347,0.325,0.314,0.174,0.103,southwest,7.8,No
2017/12/18,20:40,0.342,0.208,0.348,0.325,0.314,0.175,0.104,southwest,8.4,No
2017/12/18,20:50,0.340,0.207,0.346,0.324,0.314,0.174,0.104,southwest,7.7,No
2017/12/18,21:00,0.341,0.208,0.345,0.324,0.314,0.174,0.103,southwest,9.2,No
2017/12/18,21:10,0.342,0.208,0.348,0.324,0.313,0.173,0.104,southwest,8.7,No
2017/12/18,21:20,0.340,0.207,0.348,0.325,0.316,0.175,0.104,southwest,9.2,No
2017/12/18,21:30,0.340,0.208,0.347,0.325,0.314,0.175,0.104,south-southwest,8.1,No
2017/12/18,21:40,0.340,0.207,0.346,0.325,0.314,0.174,0.105,south-southwest,10.0,No
2017/12/18,21:50,0.340,0.207,0.347,0.324,0.312,0.174,0.103,southwest,6.6,No
2017/12/18,22:00,0.341,0.207,0.347,0.326,0.314,0.174,0.104,west-southwest,5.0,No
2017/12/18,22:10,0.341,0.207,0.347,0.326,0.315,0.174,0.104,west,4.0,No
2017/12/18,22:20,0.341,0.207,0.347,0.326,0.314,0.174,0.105,west-southwest,4.0,No
2017/12/18,22:30,0.339,0.209,0.348,0.325,0.314,0.174,0.103,west-southwest,5.2,No
2017/12/18,22:40,0.341,0.209,0.349,0.326,0.315,0.173,0.105,west,6.2,No
2017/12/18,22:50,0.342,0.208,0.348,0.324,0.314,0.173,0.104,west,5.3,No
2017/12/18,23:00,0.340,0.208,0.347,0.326,0.313,0.173,0.104,west,6.0,No
2017/12/18,23:10,0.340,0.209,0.347,0.325,0.313,0.174,0.104,west-southwest,6.4,No
2017/12/18,23:20,0.341,0.208,0.347,0.325,0.314,0.175,0.104,west-southwest,5.3,No
2017/12/18,23:30,0.342,0.208,0.348,0.324,0.315,0.175,0.104,west-southwest,6.2,No
2017/12/18,23:40,0.341,0.208,0.348,0.323,0.313,0.175,0.104,southwest,5.7,No
2017/12/18,23:50,0.342,0.208,0.347,0.325,0.313,0.174,0.104,west-southwest,6.2,No
